This demonstration page uses our WeatherBlox Daily Observations layout. Learn more.

Hourly Observations for December 8, 2016

Temp ( °F °C ) Dew Point ( °F °C ) Humidity (%) Winds ( mph kmh ) Pressure ( in mb ) Visibility ( mi km ) Precip ( " mm )
12:15 am 00:15 Clear 11 -11.8 2 -16.5 68 68 NW 14 22 30.71 1040 10 16.0934 0 0
12:35 am 00:35 Clear 11 -11.5 2 -16.6 66 66 NW 16 26 30.71 1040 10 16.0934 0 0
12:55 am 00:55 Clear 11 -11.9 2 -16.7 68 68 NW 15 24 30.74 1041 10 16.0934 0 0
1:15 am 01:15 Clear 10 -12.3 1 -17 68 68 NW 10 17 30.74 1041 10 16.0934 0 0
1:35 am 01:35 Clear 10 -12.5 1 -17.1 69 69 WNW 12 19 30.74 1041 10 16.0934 0 0
1:55 am 01:55 Clear 8 -13.1 1 -17.5 70 70 NW 10 17 30.74 1041 10 16.0934 0 0
2:15 am 02:15 Clear 9 -13 1 -17.5 69 69 NW 10 17 30.74 1041 10 16.0934 0 0
2:35 am 02:35 Clear 8 -13.5 1 -17.5 72 72 NW 12 19 30.77 1042 10 16.0934 0 0
2:55 am 02:55 Clear 8 -13.2 0 -17.6 70 70 NW 12 19 30.74 1041 10 16.0934 0 0
3:15 am 03:15 Clear 8 -13.1 0 -17.7 69 69 NW 13 20 30.77 1042 10 16.0934 0 0
3:35 am 03:35 Clear 8 -13.3 0 -17.8 69 69 NW 13 20 30.8 1043 10 16.0934 0 0
3:55 am 03:55 Clear 8 -13.5 0 -18 69 69 NW 12 19 30.8 1043 10 16.0934 0 0
4:15 am 04:15 Clear 8 -13.5 0 -18 69 69 NW 13 20 30.8 1043 10 16.0934 0 0
4:35 am 04:35 Clear 8 -13.5 -1 -18.1 69 69 WNW 14 22 30.8 1043 10 16.0934 0 0
4:55 am 04:55 Clear 8 -13.6 -1 -18.2 69 69 NW 13 20 30.8 1043 10 16.0934 0 0
5:15 am 05:15 Clear 7 -14 -1 -18.5 69 69 NW 13 20 30.8 1043 10 16.0934 0 0
5:35 am 05:35 Clear 7 -14 -1 -18.5 69 69 NW 13 20 30.8 1043 10 16.0934 0 0
5:55 am 05:55 Clear 7 -14.1 -1 -18.5 70 70 NW 13 20 30.8 1043 10 16.0934 0 0
6:15 am 06:15 Clear 7 -14.1 -1 -18.5 70 70 NW 15 24 30.8 1043 10 16.0934 0 0
6:35 am 06:35 Clear 7 -14.1 -2 -18.7 68 68 NW 13 20 30.8 1043 10 16.0934 0 0
6:55 am 06:55 Clear 7 -14.1 -2 -18.7 68 68 NW 13 20 30.83 1044 10 16.0934 0 0
7:15 am 07:15 Clear 6 -14.3 -2 -18.8 69 69 NW 13 20 30.83 1044 10 16.0934 0 0
7:35 am 07:35 Clear 6 -14.5 -2 -18.9 69 69 NW 12 19 30.83 1044 10 16.0934 0 0
7:55 am 07:55 Sunny 5 -15 -2 -19 72 72 NW 9 15 30.83 1044 10 16.0934 0 0
8:15 am 08:15 Sunny 6 -14.7 -2 -18.8 71 71 NW 9 15 30.83 1044 10 16.0934 0 0
8:35 am 08:35 Sunny 7 -13.8 -1 -18.3 69 69 NW 13 20 30.83 1044 10 16.0934 0 0
8:55 am 08:55 Sunny 8 -13.1 -1 -18.1 66 66 NW 13 20 30.86 1045 10 16.0934 0 0
9:15 am 09:15 Sunny 9 -12.6 0 -18 64 64 NNW 14 22 30.83 1044 10 16.0934 0 0
9:35 am 09:35 Sunny 10 -12 1 -17.5 64 64 NNW 14 22 30.83 1044 10 16.0934 0 0
9:55 am 09:55 Sunny 12 -11.3 2 -16.9 64 64 NNW 15 24 30.83 1044 10 16.0934 0 0
10:15 am 10:15 Sunny 13 -10.6 2 -16.4 63 63 NNW 15 24 30.83 1044 10 16.0934 0 0
10:35 am 10:35 Sunny 14 -10.2 3 -16.1 62 62 N 16 26 30.83 1044 10 16.0934 0 0
10:55 am 10:55 Sunny 15 -9.2 3 -15.9 59 59 NNW 16 26 30.8 1043 10 16.0934 0 0
11:15 am 11:15 Sunny 17 -8.6 4 -15.6 57 57 NNW 16 26 30.8 1043 10 16.0934 0 0
11:35 am 11:35 Sunny 18 -8 4 -15.5 55 55 N 14 22 30.8 1043 10 16.0934 0 0
11:55 am 11:55 Sunny 19 -7.1 5 -15.2 53 53 NNW 10 17 30.8 1043 10 16.0934 0 0
12:15 pm 12:15 Sunny 20 -6.8 4 -15.3 51 51 N 9 15 30.77 1042 10 16.0934 0 0
12:35 pm 12:35 Sunny 21 -6.2 4 -15.4 49 49 NNW 12 19 30.74 1041 10 16.0934 0 0
12:55 pm 12:55 Sunny 22 -5.8 4 -15.3 47 47 NW 12 19 30.74 1041 10 16.0934 0 0
1:15 pm 13:15 Sunny 22 -5.6 4 -15.6 46 46 NNW 7 11 30.74 1041 10 16.0934 0 0
1:35 pm 13:35 Sunny 22 -5.4 4 -15.8 44 44 NNW 6 9 30.74 1041 10 16.0934 0 0
1:55 pm 13:55 Sunny 23 -5.2 4 -15.6 44 44 NNW 8 13 30.74 1041 10 16.0934 0 0
2:15 pm 14:15 Sunny 23 -5.1 4 -15.8 43 43 WNW 7 11 30.74 1041 10 16.0934 0 0
2:35 pm 14:35 Sunny 23 -4.8 4 -15.6 43 43 WNW 9 15 30.74 1041 10 16.0934 0 0
2:55 pm 14:55 Sunny 23 -5 3 -16.1 42 42 NW 6 9 30.74 1041 10 16.0934 0 0
3:15 pm 15:15 Sunny 23 -4.8 3 -16.1 41 41 NW 7 11 30.74 1041 10 16.0934 0 0
3:35 pm 15:35 Sunny 23 -4.9 2 -16.8 39 39 WNW 6 9 30.74 1041 10 16.0934 0 0
3:55 pm 15:55 Sunny 23 -4.9 2 -16.5 40 40 NW 5 7 30.74 1041 10 16.0934 0 0
4:15 pm 16:15 Sunny 23 -5.1 2 -16.7 40 40 NW 7 11 30.74 1041 10 16.0934 0 0
4:35 pm 16:35 Sunny 22 -5.5 2 -16.6 42 42 NW 3 6 30.71 1040 10 16.0934 0 0
4:55 pm 16:55 Sunny 20 -6.5 3 -16.2 46 46 WNW 3 6 30.71 1040 10 16.0934 0 0
5:15 pm 17:15 Clear 18 -7.7 2 -16.6 49 49 WNW 3 6 30.74 1041 10 16.0934 0 0
5:35 pm 17:35 Clear 17 -8.5 2 -16.4 53 53 Calm 30.74 1041 10 16.0934 0 0
5:55 pm 17:55 Clear 15 -9.4 2 -16.6 56 56 Calm 30.74 1041 10 16.0934 0 0
6:15 pm 18:15 Clear 15 -9.7 2 -16.7 57 57 W 3 6 30.74 1041 10 16.0934 0 0
6:35 pm 18:35 Clear 14 -9.8 3 -16.3 59 59 W 3 6 30.74 1041 10 16.0934 0 0
6:55 pm 18:55 Clear 14 -10 3 -16 62 62 W 3 6 30.77 1042 10 16.0934 0 0
7:15 pm 19:15 Clear 13 -10.6 3 -16.2 64 64 W 5 7 30.8 1043 10 16.0934 0 0
7:35 pm 19:35 Clear 11 -11.6 1 -17.1 64 64 W 5 7 30.8 1043 10 16.0934 0 0
7:55 pm 19:55 Clear 11 -11.8 2 -16.6 68 68 W 3 6 30.8 1043 10 16.0934 0 0
8:15 pm 20:15 Clear 11 -11.6 2 -16.7 66 66 WSW 3 6 30.8 1043 10 16.0934 0 0
8:35 pm 20:35 Clear 12 -11 3 -16.3 65 65 W 3 6 30.77 1042 10 16.0934 0 0
8:55 pm 20:55 Clear 12 -11.2 2 -16.5 65 65 Calm 30.77 1042 10 16.0934 0 0
9:15 pm 21:15 Clear 11 -11.5 2 -16.7 66 66 WSW 3 6 30.77 1042 10 16.0934 0 0
9:35 pm 21:35 Clear 10 -12 1 -17 67 67 W 6 9 30.77 1042 10 16.0934 0 0
9:55 pm 21:55 Clear 10 -12.4 1 -17.1 68 68 W 5 7 30.77 1042 10 16.0934 0 0
10:15 pm 22:15 Clear 8 -13.2 1 -17.5 70 70 W 6 9 30.8 1043 10 16.0934 0 0
10:35 pm 22:35 Clear 9 -13 1 -17.1 72 72 W 5 7 30.77 1042 10 16.0934 0 0
10:55 pm 22:55 Clear 9 -13 1 -17.2 71 71 W 3 6 30.77 1042 10 16.0934 0 0
11:15 pm 23:15 Clear 8 -13.1 1 -17.3 71 71 W 3 6 30.77 1042 10 16.0934 0 0
11:35 pm 23:35 Clear 8 -13.5 1 -17.5 72 72 Calm 30.8 1043 10 16.0934 0 0
11:55 pm 23:55 Clear 8 -13.5 1 -17.4 73 73 W 3 6 30.8 1043 10 16.0934 0 0

Powered by AerisWeather